This is the latest recevied weather packets stored in our database for station/object IW5CTE-13. If no packets are shown the sender has not sent any weather packets the latest 10 day(s).
| Time | Temp. | Humidity | Pressure | Rain* | Wind** | Luminosity | Snow |
|---|---|---|---|---|---|---|---|
| 1777811852 | 22.22° C | 49% | 1021.5 hPa | - | - | - | - |
| 1777811252 | 22.22° C | 49% | 1021.6 hPa | - | - | - | - |
| 1777810652 | 22.78° C | 47% | 1021.7 hPa | - | - | - | - |
| 1777810052 | 22.78° C | 47% | 1021.8 hPa | - | - | - | - |
| 1777809452 | 23.33° C | 45% | 1021.7 hPa | - | - | - | - |
| 1777808852 | 23.89° C | 44% | 1021.8 hPa | - | - | - | - |
| 1777808252 | 23.89° C | 45% | 1021.7 hPa | - | - | - | - |
| 1777807652 | 23.33° C | 49% | 1021.8 hPa | - | - | - | - |
| 1777807052 | 22.78° C | 53% | 1021.8 hPa | - | - | - | - |
| 1777806452 | 22.22° C | 54% | 1021.7 hPa | - | - | - | - |
| 1777805852 | 22.22° C | 54% | 1021.8 hPa | - | - | - | - |
| 1777805253 | 22.78° C | 52% | 1021.8 hPa | - | - | - | - |
| 1777804652 | 22.78° C | 55% | 1021.8 hPa | - | - | - | - |
| 1777803452 | 23.33° C | 50% | 1022 hPa | - | - | - | - |
| 1777802851 | 23.89° C | 43% | 1022 hPa | - | - | - | - |
| 1777802254 | 23.89° C | 45% | 1022.1 hPa | - | - | - | - |
| 1777801652 | 23.33° C | 46% | 1022 hPa | - | - | - | - |
| 1777801053 | 23.89° C | 42% | 1022 hPa | - | - | - | - |
| 1777800452 | 23.89° C | 44% | 1021.9 hPa | - | - | - | - |
| 1777799855 | 23.33° C | 48% | 1021.9 hPa | - | - | - | - |
| 1777799252 | 22.78° C | 46% | 1022 hPa | - | - | - | - |
| 1777798652 | 23.33° C | 45% | 1021.8 hPa | - | - | - | - |
| 1777798052 | 23.33° C | 45% | 1021.7 hPa | - | - | - | - |
| 1777797451 | 23.33° C | 42% | 1021.6 hPa | - | - | - | - |
| 1777796852 | 22.78° C | 45% | 1021.6 hPa | - | - | - | - |
* Rain since midnight (hover to see other rain measurements)
** Current wind speed in m/s (hover to see current wind gust speed)